Location: Basse Occidentale du Courleau
(48.3833°N, 4.8333°W)
Time: 19:37:45
(UTC+00:00)

NOSS 3-4 (A) - Pass Details

Date: 05 July 2020
Orbit: 892 x 1320 km, 63.4° (Epoch: 12 July)

Event Time Altitude Azimuth Distance (km) Brightness Sun altitude
Rises 22:03:22 0° 317° (NW) 3,758 8.5 -12.3°
Reaches altitude 10° 22:05:57 10° 323° (NW) 2,862 7.5 -12.5°
Maximum altitude 22:12:38 55° 40° (NE) 1,340 4.3 -13.1°
Enters shadow 22:19:47 11° 117° (ESE) 3,075 5.6 -13.7°
